TimeMDT,TemperatureF,Dew PointF,Humidity,Sea Level PressureIn,VisibilityMPH,Wind Direction,Wind SpeedMPH,Gust SpeedMPH,PrecipitationIn,Events,Conditions,WindDirDegrees,DateUTC
12:53 AM,30.0,21.9,72,30.10,10.0,SSE,20.7,-,N/A,,Overcast,160,2012-10-05 06:53:00
1:53 AM,30.0,21.0,69,30.04,10.0,SSE,29.9,35.7,N/A,,Overcast,150,2012-10-05 07:53:00
2:53 AM,28.9,21.0,72,30.06,10.0,SSE,24.2,36.8,N/A,,Overcast,160,2012-10-05 08:53:00
3:53 AM,28.9,21.0,72,30.04,10.0,SSE,24.2,32.2,N/A,,Overcast,150,2012-10-05 09:53:00
4:53 AM,28.9,23.0,78,30.05,10.0,SSE,15.0,-,N/A,,Overcast,160,2012-10-05 10:53:00
5:53 AM,28.0,21.9,78,30.09,10.0,Calm,Calm,-,N/A,,Mostly Cloudy,0,2012-10-05 11:53:00
6:53 AM,28.0,21.0,75,30.17,10.0,NNW,8.1,-,N/A,,Overcast,330,2012-10-05 12:53:00
7:53 AM,28.0,21.9,78,30.20,10.0,NW,4.6,-,N/A,,Overcast,310,2012-10-05 13:53:00
8:53 AM,32.0,23.0,69,30.20,10.0,NNW,5.8,-,N/A,,Partly Cloudy,330,2012-10-05 14:53:00
9:34 AM,30.2,21.2,69,30.20,10.0,NNW,12.7,-,N/A,,Mostly Cloudy,330,2012-10-05 15:34:00
9:53 AM,32.0,23.0,69,30.22,10.0,NNW,13.8,-,N/A,,Overcast,340,2012-10-05 15:53:00
10:43 AM,35.6,23.0,60,30.20,10.0,North,12.7,18.4,N/A,,Scattered Clouds,350,2012-10-05 16:43:00
10:53 AM,34.0,21.9,61,30.21,10.0,North,11.5,-,N/A,,Mostly Cloudy,10,2012-10-05 16:53:00
11:53 AM,34.0,21.9,61,30.22,10.0,North,10.4,17.3,N/A,,Mostly Cloudy,360,2012-10-05 17:53:00
12:27 PM,35.6,21.2,56,30.21,10.0,North,12.7,17.3,N/A,,Scattered Clouds,360,2012-10-05 18:27:00
12:53 PM,36.0,21.9,57,30.19,10.0,NNW,11.5,18.4,N/A,,Mostly Cloudy,340,2012-10-05 18:53:00
1:03 PM,35.6,21.2,56,30.20,10.0,North,6.9,-,N/A,,Scattered Clouds,360,2012-10-05 19:03:00
1:15 PM,37.4,21.2,52,30.20,10.0,North,9.2,16.1,N/A,,Mostly Cloudy,350,2012-10-05 19:15:00
1:25 PM,37.4,21.2,52,30.19,10.0,North,9.2,-,N/A,,Scattered Clouds,360,2012-10-05 19:25:00
1:53 PM,37.9,21.9,53,30.16,10.0,North,8.1,16.1,N/A,,Partly Cloudy,350,2012-10-05 19:53:00
2:53 PM,41.0,21.9,47,30.14,10.0,Variable,5.8,-,N/A,,Partly Cloudy,0,2012-10-05 20:53:00
3:53 PM,39.9,21.9,49,30.14,10.0,Variable,4.6,-,N/A,,Mostly Cloudy,0,2012-10-05 21:53:00
4:53 PM,37.0,21.9,54,30.17,10.0,East,9.2,-,N/A,,Overcast,90,2012-10-05 22:53:00
5:14 PM,35.6,23.0,60,30.18,10.0,ESE,15.0,-,N/A,,Overcast,120,2012-10-05 23:14:00
5:53 PM,34.0,23.0,64,30.20,10.0,East,11.5,-,N/A,,Overcast,100,2012-10-05 23:53:00
6:53 PM,32.0,21.9,66,30.23,10.0,East,8.1,-,N/A,,Overcast,90,2012-10-06 00:53:00
7:07 PM,30.2,21.2,69,30.20,10.0,ESE,9.2,-,N/A,,Overcast,110,2012-10-06 01:07:00
7:32 PM,28.4,21.2,74,30.20,10.0,SE,8.1,-,N/A,,Scattered Clouds,130,2012-10-06 01:32:00
7:53 PM,28.0,21.0,75,30.25,10.0,SE,9.2,-,N/A,,Clear,140,2012-10-06 01:53:00
8:53 PM,26.1,21.0,81,30.22,10.0,SE,11.5,-,N/A,,Clear,140,2012-10-06 02:53:00
9:28 PM,26.6,23.0,86,30.18,10.0,SSE,11.5,-,N/A,,Mostly Cloudy,150,2012-10-06 03:28:00
9:53 PM,28.0,24.1,85,30.21,10.0,SSE,16.1,-,N/A,,Overcast,150,2012-10-06 03:53:00
10:49 PM,28.4,23.0,80,30.17,10.0,SE,13.8,-,N/A,,Overcast,130,2012-10-06 04:49:00
10:53 PM,28.0,23.0,81,30.18,10.0,SE,15.0,-,N/A,,Overcast,130,2012-10-06 04:53:00
11:14 PM,28.4,23.0,80,30.17,10.0,SE,16.1,-,N/A,,Overcast,130,2012-10-06 05:14:00
11:53 PM,28.0,24.1,85,30.18,10.0,SE,12.7,-,N/A,,Overcast,130,2012-10-06 05:53:00